Tracking 20942 objects as of 11-Jul-2020
HD Live streaming from Space Station
objects crossing your sky now

USA 24

Track USA 24 now!
10-day predictions
USA 24 is classified as:


NORAD ID: 18010
Int'l Code: 1987-043F
Perigee: 395.4 km
Apogee: 1,792.6 km
Inclination: 63.3 °
Period: 107.0 minutes
Semi major axis: 7464 km
RCS: Unknown
Launch date: May 15, 1987
Source: United States (US)
Launch site: AIR FORCE WESTERN TEST RANGE (AFWTR)
aabbcc
Your satellite tracking list
Your tracking list is empty




NASA's NSSDC Master Catalog

Two Line Element Set (TLE):
1 18010U 87043F   20192.91643335 +.00000726 +00000-0 +78092-4 0  9995
2 18010 063.3054 069.6530 0935872 063.9913 305.4434 13.46044877050548
Source of the keplerian elements: McCants